Theta_e
345 350 361 363 364 365 365 364 364 364 364 364 363 362 361 360 359 357 353 350 348 353 356 355 352 349 349 348 348 350 352 356
344 350 361 363 364 364 364 363 363 363 363 363 363 361 361 359 357 355 352 348 351 355 353 348 343 342 342 343 344 346 349 353
343 354 359 362 363 363 363 363 362 362 362 362 362 362 360 358 356 354 350 348 353 353 350 347 343 343 345 346 346 348 352 353
343 351 356 356 361 363 363 362 362 362 361 362 362 362 360 357 355 352 350 348 353 351 349 347 345 345 347 344 349 347 352 354
343 349 350 352 353 352 356 362 362 362 362 362 361 360 359 357 354 352 352 352 352 351 350 348 347 347 345 350 348 348 352 357
341 344 347 348 349 347 348 356 361 360 360 360 359 359 357 351 350 351 352 353 352 351 351 350 348 348 349 349 346 348 356 343
340 341 344 344 346 345 345 353 351 351 352 352 352 355 352 349 351 350 354 354 352 352 352 349 344 349 347 339 344 351 345 348
342 342 343 345 352 345 344 352 346 348 348 350 352 356 355 348 349 349 350 349 346 352 346 345 339 336 333 334 337 341 341 342
344 342 344 345 351 350 345 348 348 345 347 347 349 354 355 349 348 348 347 347 349 347 344 339 336 338 335 334 335 335 336 337
345 345 345 347 352 355 357 348 349 347 347 349 350 352 352 349 348 347 349 348 349 348 345 341 338 337 335 334 333 336 335 337
349 348 349 348 359 354 357 361 350 351 351 349 349 349 354 351 352 347 349 350 350 350 348 343 338 335 334 334 336 335 337 339
351 353 352 354 357 360 356 358 356 353 351 350 348 354 352 355 355 356 348 350 351 366 354 347 341 337 333 334 337 337 338 339
352 355 356 353 354 360 361 358 354 353 353 351 351 350 351 351 354 358 347 349 351 363 356 345 340 335 332 333 335 336 338 338
350 354 355 361 355 358 364 359 360 363 355 353 352 351 355 350 348 352 346 346 355 352 352 347 341 340 333 333 333 336 338 336
331 352 357 358 365 368 362 364 357 355 354 354 352 352 356 350 349 352 346 350 353 351 351 348 348 341 335 334 330 335 337 335
337 340 354 355 367 362 356 356 355 352 353 353 355 354 357 352 351 357 347 352 354 353 356 352 344 343 334 337 332 333 335 336
344 342 348 355 360 361 358 361 357 355 352 353 351 353 353 352 352 351 352 349 355 349 356 350 351 341 335 336 331 329 327 331
343 344 344 349 357 362 364 360 358 357 355 350 351 350 351 350 349 351 352 350 356 355 349 353 349 347 334 334 344 330 325 322
343 347 350 343 353 357 362 361 366 352 349 348 352 351 351 350 350 349 349 351 356 350 356 351 347 349 345 332 333 335 342 339
Wind_Speed
21 20 23 18 18 16 14 14 16 16 14 13 12 12 12 11 10 8 6 4 3 2 2 2 2 1 1 2 3 4 5 9
20 20 20 20 18 17 16 14 14 14 13 12 11 11 10 10 10 9 7 6 4 2 1 1 1 1 2 4 5 6 7 12
19 20 18 18 19 18 17 16 14 13 12 11 10 9 8 8 8 8 7 6 5 3 2 1 2 4 5 5 6 8 10 15
19 19 18 18 17 17 16 15 14 13 12 11 10 9 8 7 6 6 6 6 5 4 3 2 3 5 6 7 6 8 11 16
17 19 18 17 17 17 15 14 14 13 12 11 10 10 9 8 7 7 7 8 7 5 3 3 4 6 7 7 4 5 11 17
16 19 19 19 18 17 17 14 14 15 14 11 10 9 9 9 10 11 7 12 9 7 5 5 6 7 9 9 5 8 12 10
19 20 19 19 18 17 14 16 14 13 11 11 12 12 10 10 7 3 9 10 8 7 8 7 7 10 11 9 7 9 8 10
16 15 18 17 16 18 14 12 9 9 9 9 12 10 10 8 5 6 6 7 7 11 8 9 9 10 4 8 3 3 6 5
20 21 18 20 15 15 11 11 11 10 10 9 11 12 7 6 6 6 6 7 6 8 1 2 3 5 5 3 6 7 5 6
17 16 17 18 15 11 9 10 10 10 9 10 10 11 9 8 7 6 5 6 3 2 3 2 2 3 1 4 4 2 4 5
11 16 16 16 14 15 11 9 9 8 9 8 9 10 13 8 6 6 6 6 5 5 3 3 2 1 4 4 2 4 1 0
6 8 15 16 17 14 15 11 9 9 10 10 9 10 11 10 7 7 7 6 7 1 0 3 2 3 5 4 0 2 4 2
6 10 10 13 17 17 13 11 9 10 9 9 9 9 12 12 10 8 8 6 7 3 3 4 5 4 4 4 2 4 3 2
9 9 12 11 15 16 13 11 11 10 9 9 9 9 12 13 13 9 8 7 5 5 5 4 5 4 3 5 4 4 2 4
6 10 9 11 11 11 11 10 10 10 10 11 9 10 12 10 11 11 9 7 6 6 7 4 5 3 6 4 8 7 2 4
5 6 11 11 11 10 12 12 11 11 10 8 5 4 4 7 8 6 7 6 7 6 6 5 5 5 6 5 5 2 4 4
8 5 5 10 11 12 10 9 9 10 10 9 9 9 10 8 8 10 10 7 9 7 7 7 6 6 6 4 6 6 5 7
8 5 2 7 11 11 13 9 8 9 7 11 10 9 10 12 14 11 12 10 8 7 8 8 8 7 6 5 7 7 4 6
11 10 8 2 8 10 11 11 10 9 10 10 7 9 10 13 11 10 10 10 8 9 8 9 8 7 6 7 6 7 9 8
Wind_Direction
152 158 138 147 145 149 150 150 147 148 148 150 155 153 151 148 144 142 140 137 139 146 135 135 154 174 244 244 227 232 240 246
152 147 152 147 147 148 152 152 149 149 148 153 157 159 158 155 152 151 150 153 160 165 178 227 272 276 283 288 280 263 257 260
151 138 149 148 148 150 154 153 150 150 150 153 156 160 161 161 161 158 157 164 168 182 223 238 290 299 303 298 291 276 261 259
153 142 153 165 153 152 152 152 151 152 156 156 161 164 164 172 177 172 169 175 181 195 213 253 287 308 315 310 291 263 258 258
161 148 161 169 169 169 164 155 156 158 162 165 168 169 171 179 193 198 190 184 181 209 218 250 283 297 304 307 302 261 257 270
167 158 168 173 172 180 169 167 166 169 170 171 179 183 178 213 184 181 154 147 173 200 225 250 273 278 268 263 233 242 255 248
176 171 169 179 174 186 170 162 188 183 191 194 193 184 219 224 196 283 141 154 179 205 226 237 244 247 251 235 175 221 236 250
176 185 179 180 169 193 182 159 187 186 193 197 207 205 206 232 199 214 172 180 197 208 216 203 203 230 348 334 353 307 340 328
191 189 185 177 171 205 186 175 184 197 187 194 197 197 226 225 212 235 230 188 206 170 56 236 281 32 305 312 337 342 320 330
181 186 190 175 181 195 207 184 196 199 187 195 184 190 211 211 232 221 253 266 228 195 202 244 286 11 227 239 285 293 303 348
187 180 196 187 171 195 206 205 203 195 191 209 194 193 199 215 220 231 225 231 256 241 239 294 160 288 258 327 167 279 266 277
201 199 187 196 173 201 197 219 202 203 216 195 217 190 192 204 220 230 227 231 241 114 84 270 255 210 262 238 49 228 241 254
208 188 197 203 190 185 206 205 218 221 209 220 204 200 200 200 222 195 240 230 248 147 192 231 233 239 250 242 208 255 164 252
183 197 200 202 209 192 202 210 215 223 222 220 216 210 188 203 199 224 218 228 232 263 246 221 224 271 234 281 222 223 266 254
284 190 209 202 210 197 190 211 215 222 216 225 217 216 198 203 207 181 231 227 211 220 245 209 275 238 294 244 279 146 241 234
37 271 190 210 198 213 203 200 211 217 217 216 236 296 273 158 192 185 224 191 230 238 251 171 210 227 253 260 267 226 213 234
36 22 259 216 208 208 214 220 217 220 220 212 198 214 208 183 199 203 208 225 198 219 206 203 214 239 213 224 249 257 236 203
31 14 307 264 216 212 233 209 223 245 256 206 197 187 204 204 204 206 196 223 196 207 190 196 206 220 252 210 195 279 258 273
24 20 15 178 235 216 215 241 218 230 233 229 192 195 192 206 220 214 217 203 218 193 234 177 205 222 219 259 191 231 284 325